Weather History for Molokai, HI

Change the Weather History Date:

Monday, August 20, 2012

  Actual Average Record
Temperature  
Mean Temperature 78 °F -  
Max Temperature 84 °F 85 °F 90 °F (1987)
Min Temperature 73 °F 70 °F 63 °F (1984)
Cooling Degree Days 14    
Growing Degree Days 28 (Base 50)    
Moisture  
Dew Point 67 °F    
Average Humidity 71    
Maximum Humidity 82    
Minimum Humidity 56    
Precipitation  
Precipitation 0.00 in - - ()
Sea Level Pressure  
Sea Level Pressure 30.05 in    
Wind  
Wind Speed 12 mph (NE)    
Max Wind Speed 20 mph    
Max Gust Speed 33 mph    
Visibility 10 miles    
Events      
Averages and records for this station are not official NWS values.
T = Trace of Precipitation, MM = Missing Value Source: NWS Daily Summary

Daily Weather History Graph

Daily Weather History Graph

Search for Another Location

Airport:

Trip Planner

Search our weather history database for the weather conditions in past years. The results will help you decide how hot, cold, wet, or windy it might be!

Date:

Astronomy

Aug. 20, 2012 Rise Set
Actual Time 6:08 AM HST 6:53 PM HST
Civil Twilight 5:45 AM HST 7:16 PM HST
Nautical Twilight 5:19 AM HST 7:43 PM HST
Astronomical Twilight 4:51 AM HST 8:10 PM HST
Moon 9:06 AM HST (8/20) 9:04 PM HST (8/20)
Length of Visible Light 13h 30m
Length of Day
12h 45m
Waxing Crescent, 13% of the Moon is Illuminated
Aug 20
Waxing Crescent
Aug 24
First Quarter
Aug 31
Full
Sep 8
Last Quarter
Sep 15
New

Hourly Weather History & Observations

Time (HST) Temp. Heat Index Dew Point Humidity Pressure Visibility Wind Dir Wind Speed Gust Speed Precip Events Conditions
12:54 AM 73.9 °F - 68.0 °F 82% 30.04 in 10.0 mi NE 11.5 mph 18.4 mph N/A   Partly Cloudy
1:54 AM 73.9 °F - 66.0 °F 76% 30.03 in 10.0 mi NE 9.2 mph - N/A   Clear
2:54 AM 73.0 °F - 66.9 °F 81% 30.03 in 10.0 mi ENE 12.7 mph 19.6 mph N/A   Clear
3:54 AM 73.9 °F - 66.9 °F 79% 30.03 in 10.0 mi NE 9.2 mph 17.3 mph N/A   Clear
4:54 AM 73.9 °F - 66.9 °F 79% 30.04 in 10.0 mi NE 5.8 mph - N/A   Clear
5:54 AM 73.0 °F - 66.9 °F 81% 30.05 in 10.0 mi NE 8.1 mph 17.3 mph N/A   Partly Cloudy
6:54 AM 75.0 °F - 66.9 °F 76% 30.06 in 10.0 mi NE 15.0 mph 20.7 mph N/A   Partly Cloudy
7:54 AM 78.1 °F - 66.9 °F 68% 30.06 in 10.0 mi NE 12.7 mph 23.0 mph N/A   Partly Cloudy
8:54 AM 79.0 °F - 66.9 °F 66% 30.07 in 10.0 mi NNE 16.1 mph 25.3 mph N/A   Partly Cloudy
9:54 AM 81.0 °F 83.8 °F 68.0 °F 65% 30.08 in 10.0 mi NNE 13.8 mph 25.3 mph N/A   Partly Cloudy
10:54 AM 81.0 °F 83.3 °F 66.9 °F 62% 30.06 in 10.0 mi NNE 16.1 mph 28.8 mph N/A   Partly Cloudy
11:54 AM 82.9 °F 85.4 °F 66.9 °F 58% 30.06 in 10.0 mi NE 18.4 mph 29.9 mph N/A   Partly Cloudy
12:54 PM 84.0 °F 86.5 °F 66.9 °F 56% 30.04 in 10.0 mi NE 18.4 mph 29.9 mph N/A   Partly Cloudy
1:54 PM 84.0 °F 87.0 °F 68.0 °F 58% 30.02 in 10.0 mi NE 17.3 mph 33.4 mph N/A   Partly Cloudy
2:54 PM 82.9 °F 85.4 °F 66.9 °F 58% 30.01 in 10.0 mi NE 19.6 mph 31.1 mph N/A   Partly Cloudy
3:54 PM 82.0 °F 84.9 °F 68.0 °F 62% 30.01 in 10.0 mi NE 16.1 mph 31.1 mph N/A   Scattered Clouds
4:54 PM 81.0 °F 83.8 °F 68.0 °F 65% 30.01 in 10.0 mi NE 17.3 mph 25.3 mph N/A   Partly Cloudy
5:54 PM 79.0 °F - 68.0 °F 69% 30.02 in 10.0 mi NE 16.1 mph 26.5 mph N/A   Partly Cloudy
6:54 PM 75.9 °F - 68.0 °F 76% 30.04 in 10.0 mi NE 12.7 mph 25.3 mph N/A   Clear
7:54 PM 75.0 °F - 68.0 °F 79% 30.06 in 10.0 mi NE 11.5 mph 23.0 mph N/A   Partly Cloudy
8:54 PM 75.0 °F - 68.0 °F 79% 30.08 in 10.0 mi NE 10.4 mph - N/A   Scattered Clouds
9:54 PM 75.0 °F - 68.0 °F 79% 30.09 in 10.0 mi NE 6.9 mph - N/A   Clear
10:54 PM 75.0 °F - 68.0 °F 79% 30.10 in 10.0 mi NE 11.5 mph 19.6 mph N/A   Clear
11:54 PM 73.9 °F - 68.0 °F 82% 30.09 in 10.0 mi NE 10.4 mph - N/A   Clear